Weather in Zolotaya Gora

Russia / Amur Oblast     54°16′52″N   126°38′00″E
temp.,
°C
wind,
m/s
gust,
m/s
humid.,
%
clouds,
%
prec.,
mm/h
press.,
hPa
HPBL,
m
4 march, thu
thu400:00−28n129871 0.0 101627
03:00−28n129784 0.0 101636
06:00−29n229535 0.0 101726
09:00−27n239362 0.0 1018132
12:00−23n3684100 0.0 1017396
15:00−22nnw4887100 0.0 1018718
18:00−24nnw5128190 0.0 1021697
21:00−28nnw4148452 0.0 1024594
5 march, fri
fri500:00−30nnw412850 0.0 1026482
03:00−30nnw514820 0.0 1027590
06:00−30nnw516820 0.0 1028762
09:00−29nnw716790 0.0 1029829
12:00−25nnw7147930 0.0 1030919
15:00−22nnw7138162 0.0 10301013
18:00−24nnw4148496 0.0 1031842
21:00−26nnw399461 0.0 1033239
6 march, sat
sat600:00−28nnw238915 0.0 103440
03:00−29nnw11847 0.0 103420
06:00−29n11790 0.0 103420
09:00−24n12790 0.0 103385
12:00−19nnw23670 0.0 1030443
15:00−15wnw14680 0.0 1028698
18:00−20ssw119227 0.0 102820
21:00−23ssw229736 0.0 102922
7 march, sun
sun700:00−24ssw119856 0.0 102820
03:00−25s119738 0.0 102820
06:00−27sw119927 0.0 102919
09:00−22n119419 0.0 102975
12:00−15w11769 0.0 1027401
15:00−13sw228012 0.0 1026505
18:00−18ssw239763 0.0 102553
21:00−21ssw239750 0.0 102651
8 march, mon
mon800:00−21s339948 0.0 102576
03:00−20s359865 0.0 1023115
06:00−18s359793 0.2 1022200
09:00−17ssw249597 1.0 1021184
12:00−12sw1285100 0.1 1019383
15:00−11ssw2286100 0.1 1018459
18:00−15sw119799 0.1 101820
21:00−17s119795 0.1 102020